Bartow, Florida, United States (33830)
Lat: 27.90N, Lon: 81.84W
Wx Zone: FLZ052
Local Info
Past Weather Observations for Sunday, September 28, 2014

NOTE: This archive is for the closest National Weather Service station to Bartow. Information may differ from the station used for current weather conditions.

Click here for Long-term Archive

Time Weather Temperature Dewpoint Humidity Pressure Winds Precip Visibility
23:55
Clear
72°F / 22°C N/A N/A 30.01 in
(1016 mb)
Calm - 10SM
23:35
Clear
Light Rain
72°F / 22°C N/A N/A 30.01 in
(1016 mb)
Calm - 10SM
23:15
Clear
Light Rain
72°F / 22°C N/A N/A 30.01 in
(1016 mb)
Calm - 10SM
22:55
Clear
Light Rain
72°F / 22°C N/A N/A 30.01 in
(1016 mb)
Calm 0.01 in
(0.25 mm)
10SM
22:35
Clear
Light Rain
72°F / 22°C N/A N/A 30.01 in
(1016 mb)
Calm 0.01 in
(0.25 mm)
10SM
22:15
Partly Cloudy
Light Rain
72°F / 22°C N/A N/A 30.01 in
(1016 mb)
NE 5.8 mph
(NE 9 kph)
- 10SM
21:55
Partly Cloudy
Light Rain
72°F / 22°C N/A N/A 30.01 in
(1016 mb)
Calm 0.07 in
(1.78 mm)
8SM
21:35
Partly Cloudy
Light Rain
72°F / 22°C N/A N/A 30.01 in
(1016 mb)
Calm 0.06 in
(1.52 mm)
4SM
21:15
Mostly Cloudy
Light Rain
72°F / 22°C N/A N/A 30.01 in
(1016 mb)
NE 3.5 mph
(NE 6 kph)
0.01 in
(0.25 mm)
7SM
20:55
Partly Cloudy
Light Rain
72°F / 22°C N/A N/A 30.01 in
(1016 mb)
ENE 5.8 mph
(ENE 9 kph)
0.12 in
(3.05 mm)
10SM
20:35
Partly Cloudy
Light Rain
72°F / 22°C N/A N/A 30.01 in
(1016 mb)
Calm 0.12 in
(3.05 mm)
9SM
20:15
Overcast
Heavy Rain
72°F / 22°C N/A N/A 30.01 in
(1016 mb)
SW 4.6 mph
(SW 7 kph)
0.09 in
(2.29 mm)
2 1/2SM
19:55
Mostly Cloudy
Rain
73°F / 23°C 73°F / 23°C 100% 30.01 in
(1016 mb)
SW 8.1 mph
(SW 13 kph)
0.03 in
(0.76 mm)
4SM
19:35
Partly Cloudy
73°F / 23°C 73°F / 23°C 100% 30.01 in
(1016 mb)
SSW 4.6 mph
(SSW 7 kph)
- 10SM
19:15
Partly Cloudy
Light Rain
75°F / 24°C 75°F / 24°C 100% 30.01 in
(1016 mb)
SW 5.8 mph
(SW 9 kph)
- 10SM
18:55
Mostly Cloudy
Thunder Storms
75°F / 24°C 75°F / 24°C 100% 30.01 in
(1016 mb)
SW 5.8 mph
(SW 9 kph)
- 10SM
18:35
Partly Cloudy
75°F / 24°C 75°F / 24°C 100% 29.98 in
(1015 mb)
S 6.9 mph
(S 11 kph)
- 10SM
18:15
Partly Cloudy
Thunder Storms
75°F / 24°C 75°F / 24°C 100% 29.98 in
(1015 mb)
E 3.5 mph
(E 6 kph)
- 10SM
17:55
Clear
75°F / 24°C 75°F / 24°C 100% 29.98 in
(1015 mb)
ENE 4.6 mph
(ENE 7 kph)
- 10SM
17:35
Clear
75°F / 24°C 75°F / 24°C 100% 29.98 in
(1015 mb)
E 3.5 mph
(E 6 kph)
- 10SM
17:15
Clear
Thunder Storms
75°F / 24°C 75°F / 24°C 100% 29.95 in
(1014 mb)
E 6.9 mph
(E 11 kph)
- 10SM
16:55
Clear
75°F / 24°C 75°F / 24°C 100% 29.95 in
(1014 mb)
E 4.6 mph
(E 7 kph)
0.01 in
(0.25 mm)
10SM
16:35
Partly Cloudy
Light Rain
75°F / 24°C 75°F / 24°C 100% 29.95 in
(1014 mb)
ENE 4.6 mph
(ENE 7 kph)
0.01 in
(0.25 mm)
7SM
15:47
Mostly Cloudy
Showers In Vicinity
73°F / 23°C 73°F / 23°C 100% 29.95 in
(1014 mb)
SE 8.1 mph
(SE 13 kph)
- 7SM
14:47
Mostly Cloudy
Thunder Storms
73°F / 23°C 73°F / 23°C 100% 29.98 in
(1015 mb)
E 10.4 mph
(E 17 kph)
- 7SM
13:54
Mostly Cloudy
Thunder Storms
75°F / 24°C 75°F / 24°C 100% 29.98 in
(1015 mb)
NE 9.2 mph
(NE 15 kph)
- 1SM
13:14
Mostly Cloudy
Rain
82°F / 28°C 75°F / 24°C 79% 29.98 in
(1015 mb)
SSE 11.5 mph
(SSE 19 kph)
- 2SM
12:55
Mostly Cloudy
84°F / 29°C 73°F / 23°C 70% 29.98 in
(1015 mb)
E 4.6 mph
(E 7 kph)
- 10SM
11:47
Partly Cloudy
82°F / 28°C 75°F / 24°C 79% 30.01 in
(1016 mb)
E 5.8 mph
(E 9 kph)
- 10SM
10:55
Mostly Cloudy
82°F / 28°C 73°F / 23°C 74% 30.04 in
(1017 mb)
E 8.1 mph
(E 13 kph)
- 10SM
09:47
Partly Cloudy
82°F / 28°C 75°F / 24°C 79% 30.04 in
(1017 mb)
E 8.1 mph
(E 13 kph)
- 10SM
08:47
Mostly Cloudy
81°F / 27°C 75°F / 24°C 84% 30.04 in
(1017 mb)
ENE 5.8 mph
(ENE 9 kph)
- 10SM
07:53
Mostly Cloudy
79°F / 26°C 77°F / 25°C 94% 30.04 in
(1017 mb)
ENE 5.8 mph
(ENE 9 kph)
- 10SM
06:47
Partly Cloudy
73°F / 23°C N/A N/A 30.01 in
(1016 mb)
NE 4.6 mph
(NE 7 kph)
- 10SM
06:15
Clear
73°F / 23°C N/A N/A 30.01 in
(1016 mb)
NE 4.6 mph
(NE 7 kph)
- 10SM
05:55
Clear
73°F / 23°C N/A N/A 30.01 in
(1016 mb)
NE 4.6 mph
(NE 7 kph)
- 10SM
05:35
Clear
73°F / 23°C 73°F / 23°C 100% 30.01 in
(1016 mb)
NE 5.8 mph
(NE 9 kph)
- 10SM
05:15
Clear
73°F / 23°C 73°F / 23°C 100% 30.01 in
(1016 mb)
NE 5.8 mph
(NE 9 kph)
- 10SM
04:55
Partly Cloudy
73°F / 23°C 73°F / 23°C 100% 30.01 in
(1016 mb)
NE 4.6 mph
(NE 7 kph)
- 10SM
04:35
Partly Cloudy
75°F / 24°C 75°F / 24°C 100% 30.01 in
(1016 mb)
NE 3.5 mph
(NE 6 kph)
- 10SM
04:15
Clear
73°F / 23°C 73°F / 23°C 100% 30.01 in
(1016 mb)
Calm - 10SM
03:55
Clear
73°F / 23°C 73°F / 23°C 100% 30.01 in
(1016 mb)
NE 3.5 mph
(NE 6 kph)
- 10SM
03:35
Partly Cloudy
75°F / 24°C 75°F / 24°C 100% 30.01 in
(1016 mb)
NE 3.5 mph
(NE 6 kph)
- 10SM
03:15
Mostly Cloudy
75°F / 24°C 75°F / 24°C 100% 30.01 in
(1016 mb)
NE 3.5 mph
(NE 6 kph)
- 10SM
02:55
Mostly Cloudy
75°F / 24°C N/A N/A 30.01 in
(1016 mb)
NE 3.5 mph
(NE 6 kph)
- 10SM
02:35
Partly Cloudy
75°F / 24°C N/A N/A 30.01 in
(1016 mb)
Calm - 10SM
02:15
Clear
75°F / 24°C N/A N/A 30.01 in
(1016 mb)
NE 4.6 mph
(NE 7 kph)
- 10SM
01:55
Partly Cloudy
75°F / 24°C 75°F / 24°C 100% 30.01 in
(1016 mb)
NNE 4.6 mph
(NNE 7 kph)
- 10SM
01:35
Partly Cloudy
75°F / 24°C 75°F / 24°C 100% 30.01 in
(1016 mb)
NE 4.6 mph
(NE 7 kph)
- 10SM
01:15
Clear
75°F / 24°C 75°F / 24°C 100% 30.01 in
(1016 mb)
NNE 4.6 mph
(NNE 7 kph)
- 10SM
00:55
Clear
75°F / 24°C 75°F / 24°C 100% 30.01 in
(1016 mb)
N 3.5 mph
(N 6 kph)
- 10SM
00:35
Clear
75°F / 24°C 75°F / 24°C 100% 30.01 in
(1016 mb)
N 3.5 mph
(N 6 kph)
- 10SM
00:15
Clear
75°F / 24°C 75°F / 24°C 100% 30.04 in
(1017 mb)
Calm - 10SM
Time Weather Temperature Dewpoint Humidity Pressure Winds Precip Visibility


Weather for websites

WeatherForYou.com, LLC is not responsible for any damages or problems caused by this service. Current weather conditions are obtained from the closest station including government and personal stations which may have varying degrees of accuracy. Weather forecasts are derived from the NOAA NDFD. Like all things, this site belongs to Jesus Christ... He just trusts me to maintain it. If you have any questions or comments email webmaster@weatherforyou.com

Copyright © 2014, WeatherForYou.com LLC. All rights reserved.